Flag Weather past 2 weeks in Liverpool, England, United Kingdom

Now
48 °F

Light rain. Passing clouds.


Feels Like: 43 °F
Forecast: 48 / 57 °F
Wind: 13 mph from Southeast

Location: Liverpool Airport

Current Time: Nov 22, 2014 at 3:28:18 AM

Latest Report: Nov 22, 2014 at 2:50 AM


Visibility: 4 mi

Pressure: 29.77 "Hg

Humidity: 94%

Dew point: 46 °F

Location of LiverpoolLocation

Historic Weather in Liverpool — Graph

°F

Liverpool temperature yesterday

Maximum temperature yesterday: 48 °F (at 9:20 PM)
Minimum temperature yesterday: 39 °F (at 3:20 AM)
Average temperature yesterday: 45 °F

Past Weeks' High & Low Weather Summary

 TemperatureHumidityPressure
High57 °F (Nov 13, 3:50 PM)100% (Nov 7, 6:20 AM)30.30 "Hg (Nov 7, 6:20 AM)
Low39 °F (Nov 21, 3:20 AM)67% (Nov 14, 1:50 PM)29.06 "Hg (Nov 7, 3:50 AM)
Average49 °F89%29.60 "Hg
* Reported Nov 7 2:20 AM — Nov 22 2:20 AM, Liverpool, Weather by CustomWeather, © 2014

Note: Actual official high and low records may vary slightly from our data, if they occured in-between our weather recording intervals... More about our weather records

Advertising

Liverpool weather history for previous 24 hours

 ConditionsComfort  
Time TempWeatherWind HumidityBarometerVisibility
2:20 AM
Nov 22
48 °FLight rain. Passing clouds.13 mph94%29.77 "Hg4 mi
1:50 AM48 °FLight rain. Passing clouds.12 mph94%29.77 "Hg4 mi
1:20 AM46 °FLight rain. Passing clouds.15 mph93%29.77 "Hg4 mi
12:50 AM48 °FLight rain. Passing clouds.14 mph94%29.77 "Hg4 mi
12:20 AM48 °FLight rain. Passing clouds.14 mph94%29.80 "Hg4 mi
11:50 PM
Nov 21
48 °FLight rain. Passing clouds.15 mph94%29.83 "Hg5 mi
11:20 PM48 °FLight rain. Passing clouds.13 mph94%29.80 "Hg5 mi
10:50 PM46 °FLight rain. Passing clouds.15 mph93%29.83 "Hg5 mi
10:20 PM46 °FLight rain. Passing clouds.14 mph93%29.83 "Hg5 mi
9:20 PM48 °FLight rain. Passing clouds.13 mph94%29.83 "Hg4 mi
8:50 PM46 °FLight rain. Passing clouds.13 mph93%29.83 "Hg4 mi
8:20 PM46 °FLight rain. Passing clouds.12 mph93%29.86 "Hg4 mi
7:50 PM46 °FLight rain. Passing clouds.15 mph93%29.86 "Hg4 mi
7:20 PM46 °FLight rain. Partly cloudy.15 mph93%29.86 "Hg4 mi
6:50 PM46 °FLight rain. Partly cloudy.14 mph93%29.86 "Hg4 mi
6:20 PM46 °FLight rain. Partly cloudy.15 mph93%29.86 "Hg4 mi
5:50 PM46 °FLight rain. Partly cloudy.14 mph93%29.89 "Hg4 mi
5:20 PM46 °FPartly cloudy.16 mph93%29.89 "Hg4 mi
4:50 PM46 °FPartly cloudy.16 mph93%29.89 "Hg4 mi
4:20 PM46 °FLight rain. Partly cloudy.15 mph93%29.89 "Hg2 mi
3:50 PM46 °FLight rain. Broken clouds.15 mph93%29.92 "Hg2 mi
3:20 PM46 °FLight rain. Broken clouds.14 mph93%29.92 "Hg2 mi
2:50 PM46 °FLight rain. Scattered clouds.14 mph93%29.92 "Hg3 mi
2:20 PM46 °FLight rain. Scattered clouds.13 mph93%29.95 "Hg3 mi
1:50 PM46 °FLight rain. Scattered clouds.14 mph87%29.95 "Hg3 mi
1:20 PM46 °FRain. Partly sunny.14 mph93%29.98 "Hg3 mi
12:50 PM46 °FRain. Partly sunny.13 mph87%30.01 "Hg3 mi
12:20 PM46 °FLight rain. Partly sunny.13 mph87%30.01 "Hg3 mi
11:50 AM46 °FFog.13 mph87%30.01 "Hg3 mi
11:20 AM46 °FFog.13 mph87%30.04 "Hg3 mi
10:50 AM46 °FFog.14 mph82%30.04 "Hg3 mi
10:20 AM46 °FFog.14 mph82%30.07 "Hg3 mi
9:50 AM45 °FFog.12 mph87%30.07 "Hg3 mi
9:20 AM45 °FFog.9 mph87%30.07 "Hg3 mi
8:50 AM45 °FFog.10 mph87%30.09 "Hg3 mi
8:20 AM43 °FFog.8 mph93%30.09 "Hg3 mi
7:50 AM43 °FFog.8 mph93%30.12 "Hg3 mi
7:20 AM43 °FFog.12 mph93%30.09 "Hg3 mi
6:50 AM43 °FPassing clouds.12 mph100%30.12 "Hg4 mi
6:20 AM41 °FPassing clouds.10 mph100%30.12 "Hg4 mi
5:50 AM41 °FPassing clouds.10 mph100%30.12 "Hg4 mi
5:20 AM41 °FFog.10 mph93%30.12 "Hg2 mi
4:50 AM39 °FFog.7 mph100%30.12 "Hg2 mi
4:20 AM41 °FFog.7 mph93%30.15 "Hg2 mi
3:50 AM41 °FFog.6 mph93%30.15 "Hg3 mi
3:20 AM39 °FFog.8 mph100%30.15 "Hg3 mi
Weather by CustomWeather, © 2014

See weather overviewHow to use our weather pages